SCP
0 0 0 0 0 0 0 0 0 0 0 0 0 0 0 0 0 0 0 0 0 0 -0 0 0 0 0 0 0 0 -0 0 0 0 0 0 0 0 0 0 0 0 0 0
0 0 0 0 0 0 0 0 0 0 0 0 0 0 0 -0 0 0 0 0 0 0 0 0 0 0 0 0 -0 -0 -0 0 -0 0 0 0 0 0 0 0 0 0 0 0
0 0 0 0 0 0 0 0 0 0 0 0 0 0 0 0 -0 0 0 0 0 0 0 0 0 0 0 -0 -0 -0 -0 0 -0 -0 -0 -0 0 0 0 0 0 0 0 0
0 0 0 0 0 0 0 0 0 0 0 0 0 0 0 0 0 0 0 0 0 0 0 0 0 0 0 0 -0 -0 -0 0 -0 0 0 0 0 0 0 0 0 0 0 0
0 0 0 0 0 0 0 0 0 0 0 0 0 0 0 0 0 0 0 0 0 0 0 0 0 0 0 0 0 -0 -0 0 -0 -0 0 -0 0 0 0 0 0 0 0 0
0 0 0 0 0 0 0 0 0 0 0 0 0 0 0 0 0 0 0 0 0 0 0 0 -0 0 0 0 0 -0 0 -0 -0 0 0 -0 0 0 0 0 0 0 0 0
0 0 0 0 0 0 0 0 0 0 0 0 0 0 0 0 0 0 0 0 0 0 0 0 0 0 0 0 -0 -0 -0 -0 0 0 -0 0 0 0 0 0 0 0 0 0
0 0 0 0 0 0 0 0 0 0 0 0 0 0 0 0 0 0 0 0 0 0 0 0 0 0 0 -0 -0 -0 -0 0 0 0 0 0 0 0 0 0 0 0 0 0
0 0 0 0 0 0 0 0 0 0 0 0 0 0 0 0 0 0 0 0 0 0 0 0 0 0 0 0 -0 -0 0 0 -0 0 0 0 0 0 0 0 0 -0 0 0
0 0 0 0 0 0 0 0 0 0 0 0 0 0 0 0 0 0 0 0 0 0 0 0 0 0 -0 -0 0 0 0 0 0 0 0 0 0 0 0 0 0 0 0 0
0 0 0 0 0 0 0 0 0 0 0 0 0 0 0 0 0 0 0 0 0 0 0 0 0 0 0 0 0 0 -0 0 0 0 0 0 0 0 0 0 0 0 -0 0
0 0 0 0 0 0 0 0 0 0 0 0 0 0 0 0 0 0 0 0 0 0 0 0 -0 0 0 0 0 0 0 0 0 0 0 0 0 0 0 0 0 0 0 0
0 0 0 0 0 0 0 0 0 0 0 -0 -0 0 0 0 0 0 0 0 0 0 0 -0 -0 -0 0 0 0 0 0 0 0 0 0 0 0 0 0 0 0 -0 -0 -0
0 0 0 0 0 0 0 0 0 0 0 -0 -0 0 0 0 0 0 0 0 0 0 0 -0 -0 0 0 0 0 0 0 0 0 0 0 0 0 0 0 0 0 0 -0 -0
0 0 0 0 0 0 0 0 0 0 -0 -0 -0 -0 0 0 0 0 0 0 0 0 0 0 0 0 0 0 0 0 0 0 0 0 0 0 0 0 0 0 0 0 0 -0
0 0 0 0 0 0 0 0 0 0 0 -0 0 0 0 0 0 0 0 0 0 0 0 0 0 -0 -0 0 0 0 0 0 0 0 0 0 0 0 0 0 0 0 0 -0
0 0 0 0 0 0 0 0 0 0 0 0 0 -0 0 0 0 0 0 0 0 0 0 -0 -0 -0 0 -0 0 0 0 0 0 0 0 0 0 0 0 -0 0 0 0 0
0 0 0 0 0 0 0 0 0 -0 -0 -0 -0 0 0 0 0 0 0 0 0 0 0 0 -0 0 0 0 0 0 0 0 0 0 0 0 0 -0 0 -0 -0 0 0 0
0 0 0 0 -0 -0 0 -0 -0 -0 -0 -0 -0 -0 0 0 0 0 0 0 0 0 0 0 -0 0 0 0 0 0 0 0 0 0 0 0 0 -0 -0 0 0 0 0 0
0 0 0 -0 -0 -0 -0 -0 0 -0 -0 0 -0 0 0 0 0 0 0 0 0 0 0 -0 0 0 0 0 0 0 0 0 0 0 0 0 0 -0 0 0 0 0 0 0
0 -0 -0 -0 -0 -0 -0 -0 0 0 0 0 0 0 0 0 0 0 0 0 0 0 -0 -0 0 0 0 0 0 0 0 0 0 0 0 0 0 0 -0 0 0 0 0 0
-0 -0 -0 -0 -0 -0 0 0 0 0 0 0 0 0 0 0 0 0 0 0 0 0 0 -0 0 0 0 0 0 0 0 0 0 0 0 0 -0 -0 -0 -0 0 0 0 0
0 -0 -0 0 0 0 0 0 0 0 0 0 0 0 0 0 0 0 0 0 0 0 0 -0 -0 0 0 0 0 0 0 0 0 0 0 -0 -0 -0 -0 -0 0 0 0 0
0 0 0 0 0 0 0 0 0 0 0 0 0 0 0 0 0 0 0 0 0 0 0 0 -0 0 0 0 0 0 0 0 0 0 0 0 0 -0 0 0 0 0 -0 -0
0 0 0 0 0 -0 0 0 0 0 0 0 0 0 0 0 0 0 0 0 0 0 0 0 -0 0 0 0 0 0 0 0 0 0 0 0 0 0 0 -0 -0 0 -0 0
0 0 0 -0 0 0 0 0 0 0 0 0 0 0 0 0 0 0 0 0 0 0 0 0 0 0 0 0 0 0 0 0 0 0 0 0 0 0 0 0 -0 0 0 0
0 -0 -0 0 0 0 0 0 0 0 0 0 0 0 0 0 0 0 0 0 0 0 0 0 0 0 0 0 0 0 0 0 0 0 0 -0 -0 -0 0 0 -0 0 0 0
Wind_Speed_500mb
12 19 8 20 24 19 15 11 11 11 12 22 19 16 37 57 65 66 66 68 77 71 69 80 81 78 85 79 73 71 70 69 66 51 40 32 23 38 43 53 51 49 40 44
9 6 4 16 15 10 8 8 14 15 20 14 26 45 40 63 62 66 63 71 78 70 71 79 76 94 85 77 72 68 69 68 40 30 29 14 24 38 61 60 52 46 43 41
9 5 11 10 13 11 8 10 9 10 18 8 15 25 43 55 60 59 61 72 81 72 77 72 87 87 80 73 67 67 61 50 23 28 15 20 38 54 54 56 56 55 49 54
7 6 4 10 4 4 9 15 14 15 20 22 29 45 51 57 44 47 58 74 82 80 70 77 84 78 71 63 60 56 48 29 14 22 6 25 41 52 59 63 65 59 60 64
4 5 10 12 4 7 6 15 13 13 15 31 45 34 40 37 48 46 56 71 76 73 68 81 73 71 63 57 54 46 37 24 3 6 19 29 44 56 63 66 61 59 67 73
4 5 9 10 7 16 6 10 11 8 17 29 33 17 14 52 59 51 60 70 74 72 78 72 65 62 57 55 49 36 31 18 2 21 38 44 59 70 76 71 72 77 87 88
4 6 12 8 19 9 2 11 19 15 29 39 8 26 64 63 54 49 60 69 70 71 71 63 59 57 52 51 39 23 11 6 18 28 39 56 69 78 86 93 104 108 106 97
5 7 12 12 9 2 6 37 31 35 46 50 53 58 63 56 50 52 61 67 67 69 68 56 52 52 50 45 27 16 9 20 37 46 55 67 77 85 95 109 111 107 106 104
13 10 7 10 17 30 27 40 43 38 39 43 47 54 54 53 49 51 58 61 62 64 60 50 49 46 45 34 18 21 22 37 50 57 67 79 94 104 109 112 121 117 115 106
4 7 8 44 31 32 33 30 28 29 32 37 47 56 50 47 44 49 57 58 58 60 52 47 45 43 41 24 15 30 41 48 51 58 71 79 88 106 109 108 117 116 112 110
8 20 26 9 24 46 42 29 31 31 33 39 44 50 47 42 39 44 52 51 54 52 45 42 38 36 31 21 18 32 46 54 62 73 80 84 88 90 93 91 97 107 103 99
10 17 8 26 55 59 60 38 35 37 41 41 41 43 42 37 35 41 47 47 49 45 39 38 37 33 24 17 21 34 48 58 63 70 76 87 91 86 85 92 91 88 85 81
24 16 32 48 59 61 53 27 29 34 37 45 39 40 38 32 32 38 39 41 43 41 35 32 35 30 23 17 18 40 59 67 82 86 88 86 87 91 94 84 81 74 71 69
37 49 59 49 45 18 20 21 27 33 37 41 40 44 43 36 31 34 33 35 35 34 32 30 33 29 23 16 26 45 70 78 83 85 83 86 90 90 86 86 85 77 63 60
39 31 30 38 26 25 23 31 37 37 41 47 43 43 51 37 28 26 26 27 27 28 29 28 29 30 21 25 41 60 72 75 78 84 86 87 89 86 85 85 82 76 65 56
25 31 38 42 31 29 24 26 30 37 43 50 47 45 46 28 20 18 22 20 21 24 25 25 25 23 22 36 51 61 66 74 76 76 81 82 82 83 82 78 73 65 58 54
47 45 37 29 20 21 25 27 32 38 45 48 45 42 37 20 15 15 17 13 17 20 21 21 22 20 30 43 52 55 60 60 63 68 73 74 77 76 73 69 65 61 57 47
11 12 8 13 24 33 37 39 43 47 50 50 39 35 30 19 16 12 12 7 14 20 24 25 23 21 30 45 50 59 59 57 59 64 69 69 69 65 63 62 60 60 57 48
7 12 19 29 38 43 46 48 50 52 53 49 36 29 22 19 19 9 6 5 14 21 26 24 25 26 32 44 51 54 54 50 58 64 64 63 62 59 58 57 57 54 51 49
12 19 31 41 43 40 42 42 40 43 43 41 33 25 20 22 21 12 4 9 13 20 25 23 24 30 35 47 49 53 52 59 64 63 59 59 57 57 54 52 52 50 48 47
24 36 48 52 48 41 37 38 31 35 39 39 34 25 24 22 23 15 11 9 16 24 25 25 31 33 36 41 52 57 58 63 58 57 56 56 54 52 50 48 46 44 46 50
32 44 56 55 46 47 39 36 24 26 35 39 26 22 25 31 28 20 14 9 23 31 30 35 35 32 43 55 62 58 63 60 57 54 51 49 47 47 47 45 46 48 48 48
38 50 54 47 43 38 38 30 28 25 30 24 26 20 30 32 27 21 22 24 29 35 36 39 41 46 58 46 54 66 62 54 51 47 45 43 43 44 45 46 46 44 43 46
44 51 37 30 30 33 35 31 31 29 32 24 27 26 33 39 32 21 16 24 34 38 37 47 54 62 50 51 52 59 57 47 44 45 42 42 42 43 44 43 46 45 43 45
43 39 24 28 29 28 29 31 33 26 23 12 17 24 35 37 20 25 26 32 39 41 45 57 66 51 53 49 55 52 52 40 45 43 41 40 42 44 44 43 44 44 44 43
39 29 24 30 36 38 34 34 28 17 17 16 21 24 35 38 22 32 31 37 43 45 60 72 63 45 49 51 42 37 43 48 42 39 39 38 42 43 44 45 45 41 41 42
34 23 30 38 39 32 27 31 17 9 11 11 27 32 42 35 37 40 39 43 50 54 62 58 76 54 48 41 38 33 40 45 40 39 38 40 42 43 43 43 41 40 40 40
Wind_Direction_500mb
245 255 241 261 269 273 195 207 190 258 231 278 285 292 304 319 326 326 330 331 330 328 326 331 335 327 334 333 331 330 323 316 310 299 283 283 233 208 206 192 187 198 208 208
288 282 240 267 266 252 208 212 247 266 283 240 300 319 312 320 326 324 330 328 331 330 330 336 333 328 333 333 333 329 328 322 316 298 287 221 193 205 190 184 187 194 191 200
260 322 324 314 224 221 255 248 218 271 276 296 305 308 311 314 322 322 326 329 333 333 337 337 330 332 333 334 334 334 333 333 321 310 323 204 189 182 178 180 181 182 185 189
252 15 263 244 267 244 235 265 247 270 273 276 290 311 318 326 316 315 326 332 334 336 339 332 333 337 335 339 340 337 334 334 310 307 256 205 193 181 174 175 174 174 174 178
197 206 291 299 249 227 203 281 263 234 269 299 307 322 314 324 331 324 328 333 334 338 337 337 339 339 344 345 344 345 343 344 336 192 174 172 167 165 162 162 160 163 168 160
144 224 231 243 286 336 129 292 287 256 286 285 317 326 302 326 329 326 330 335 336 340 340 344 343 347 354 351 354 357 358 356 161 150 154 163 159 155 155 159 155 148 138 136
167 258 280 242 307 332 151 253 308 292 292 294 268 278 309 319 327 325 333 338 342 342 347 349 348 355 360 358 2 7 32 67 124 144 148 150 151 149 149 146 142 137 133 131
154 204 272 355 1 296 260 323 307 313 317 314 313 314 314 319 323 329 335 341 345 348 352 355 358 360 359 5 4 28 62 113 125 135 137 136 144 142 141 136 131 129 124 119
184 224 249 333 332 323 327 311 303 311 313 316 318 329 320 321 324 331 338 346 349 352 358 3 5 3 1 12 37 79 105 117 120 131 128 126 132 137 134 131 127 123 119 120
23 292 283 321 327 340 325 316 329 331 327 333 327 328 321 319 325 333 341 350 350 358 4 5 9 5 4 11 71 107 113 117 122 128 125 122 126 130 127 126 124 120 120 119
267 287 296 239 349 352 341 345 338 336 348 345 340 334 322 318 326 336 344 352 355 5 7 5 12 6 9 21 93 114 121 125 126 129 129 129 123 122 120 118 120 122 125 123
234 234 218 295 314 316 321 320 332 336 337 342 340 332 323 317 328 339 348 355 359 9 12 7 15 12 21 39 104 116 117 119 122 124 121 118 113 110 113 119 123 120 118 117
243 265 287 295 299 296 297 299 322 332 345 353 353 343 329 322 329 343 352 0 3 9 16 13 20 24 31 55 102 117 120 124 124 121 118 114 115 114 114 113 109 107 107 106
271 287 293 295 283 265 302 302 320 324 334 350 352 349 338 322 325 343 354 6 8 14 24 22 24 34 46 84 118 127 125 121 116 114 115 116 116 117 116 114 111 108 104 104
277 284 288 313 288 283 285 292 298 314 326 335 352 340 337 320 315 338 355 9 15 22 31 34 37 42 56 105 121 127 122 120 121 122 122 122 122 121 119 117 116 115 117 113
280 279 285 294 283 282 282 292 307 317 323 329 336 334 332 310 303 334 357 15 25 34 38 38 50 59 91 122 130 130 129 130 130 128 127 127 126 125 123 120 117 118 117 113
277 277 274 262 255 278 297 306 313 315 321 326 332 328 335 299 283 327 353 31 49 54 56 56 71 94 113 124 132 129 127 128 132 133 133 132 129 125 122 120 119 115 109 109
233 245 274 297 306 310 308 308 314 317 318 320 332 319 327 290 273 312 349 55 90 83 77 74 87 115 128 128 132 132 134 139 137 136 135 132 127 122 120 117 114 112 111 111
306 327 325 325 318 310 308 304 304 306 309 315 323 306 307 269 256 274 334 110 125 116 108 102 105 120 136 142 141 144 145 140 138 135 133 130 125 121 121 119 115 111 110 111
336 332 331 329 324 311 306 305 307 307 312 318 321 298 273 248 238 235 210 120 144 144 138 133 133 131 135 142 146 148 141 142 141 138 137 133 130 128 123 119 116 116 116 113
335 335 330 329 327 328 324 316 310 315 325 321 311 276 252 239 220 213 195 149 166 158 153 153 152 150 150 155 153 149 144 147 146 142 140 136 133 127 123 123 121 119 118 116
329 327 326 328 326 323 326 319 306 311 317 316 303 251 224 214 202 189 168 179 168 162 160 161 154 154 151 146 148 150 147 149 146 143 141 136 131 131 128 125 125 123 121 117
318 323 328 325 324 323 327 326 324 306 306 304 298 248 215 209 205 202 186 171 173 165 164 160 146 151 137 147 150 149 147 145 145 143 139 135 131 130 129 128 123 121 120 117
309 321 325 344 332 324 324 318 310 310 301 285 253 247 215 196 184 180 170 169 169 167 159 157 150 139 146 149 152 151 152 150 145 143 136 131 132 131 128 126 124 122 123 119
306 317 319 329 330 341 325 324 317 320 319 280 241 231 220 190 193 182 168 166 166 162 155 151 143 148 151 154 154 154 155 153 148 140 134 133 134 133 131 127 124 126 124 123
312 305 303 304 303 313 315 325 322 322 337 230 224 225 193 175 177 160 164 163 158 159 155 149 141 152 150 148 147 141 150 147 145 145 140 136 138 135 134 130 127 127 126 125
320 300 299 315 323 314 302 319 309 309 324 250 215 200 178 169 166 159 160 159 156 157 153 161 154 143 137 150 159 159 153 156 152 148 144 140 139 136 135 133 132 131 126 123
Wind_Speed_850mb
12 19 8 20 24 19 15 11 11 11 12 22 19 16 37 57 65 66 66 68 77 71 69 80 81 78 85 79 73 71 70 69 66 51 40 32 23 38 43 53 51 49 40 44
9 6 4 16 15 10 8 8 14 15 20 14 26 45 40 63 62 66 63 71 78 70 71 79 76 94 85 77 72 68 69 68 40 30 29 14 24 38 61 60 52 46 43 41
9 5 11 10 13 11 8 10 9 10 18 8 15 25 43 55 60 59 61 72 81 72 77 72 87 87 80 73 67 67 61 50 23 28 15 20 38 54 54 56 56 55 49 54
7 6 4 10 4 4 9 15 14 15 20 22 29 45 51 57 44 47 58 74 82 80 70 77 84 78 71 63 60 56 48 29 14 22 6 25 41 52 59 63 65 59 60 64
4 5 10 12 4 7 6 15 13 13 15 31 45 34 40 37 48 46 56 71 76 73 68 81 73 71 63 57 54 46 37 24 3 6 19 29 44 56 63 66 61 59 67 73
4 5 9 10 7 16 6 10 11 8 17 29 33 17 14 52 59 51 60 70 74 72 78 72 65 62 57 55 49 36 31 18 2 21 38 44 59 70 76 71 72 77 87 88
4 6 12 8 19 9 2 11 19 15 29 39 8 26 64 63 54 49 60 69 70 71 71 63 59 57 52 51 39 23 11 6 18 28 39 56 69 78 86 93 104 108 106 97
5 7 12 12 9 2 6 37 31 35 46 50 53 58 63 56 50 52 61 67 67 69 68 56 52 52 50 45 27 16 9 20 37 46 55 67 77 85 95 109 111 107 106 104
13 10 7 10 17 30 27 40 43 38 39 43 47 54 54 53 49 51 58 61 62 64 60 50 49 46 45 34 18 21 22 37 50 57 67 79 94 104 109 112 121 117 115 106
4 7 8 44 31 32 33 30 28 29 32 37 47 56 50 47 44 49 57 58 58 60 52 47 45 43 41 24 15 30 41 48 51 58 71 79 88 106 109 108 117 116 112 110
8 20 26 9 24 46 42 29 31 31 33 39 44 50 47 42 39 44 52 51 54 52 45 42 38 36 31 21 18 32 46 54 62 73 80 84 88 90 93 91 97 107 103 99
10 17 8 26 55 59 60 38 35 37 41 41 41 43 42 37 35 41 47 47 49 45 39 38 37 33 24 17 21 34 48 58 63 70 76 87 91 86 85 92 91 88 85 81
24 16 32 48 59 61 53 27 29 34 37 45 39 40 38 32 32 38 39 41 43 41 35 32 35 30 23 17 18 40 59 67 82 86 88 86 87 91 94 84 81 74 71 69
37 49 59 49 45 18 20 21 27 33 37 41 40 44 43 36 31 34 33 35 35 34 32 30 33 29 23 16 26 45 70 78 83 85 83 86 90 90 86 86 85 77 63 60
39 31 30 38 26 25 23 31 37 37 41 47 43 43 51 37 28 26 26 27 27 28 29 28 29 30 21 25 41 60 72 75 78 84 86 87 89 86 85 85 82 76 65 56
25 31 38 42 31 29 24 26 30 37 43 50 47 45 46 28 20 18 22 20 21 24 25 25 25 23 22 36 51 61 66 74 76 76 81 82 82 83 82 78 73 65 58 54
47 45 37 29 20 21 25 27 32 38 45 48 45 42 37 20 15 15 17 13 17 20 21 21 22 20 30 43 52 55 60 60 63 68 73 74 77 76 73 69 65 61 57 47
11 12 8 13 24 33 37 39 43 47 50 50 39 35 30 19 16 12 12 7 14 20 24 25 23 21 30 45 50 59 59 57 59 64 69 69 69 65 63 62 60 60 57 48
7 12 19 29 38 43 46 48 50 52 53 49 36 29 22 19 19 9 6 5 14 21 26 24 25 26 32 44 51 54 54 50 58 64 64 63 62 59 58 57 57 54 51 49
12 19 31 41 43 40 42 42 40 43 43 41 33 25 20 22 21 12 4 9 13 20 25 23 24 30 35 47 49 53 52 59 64 63 59 59 57 57 54 52 52 50 48 47
24 36 48 52 48 41 37 38 31 35 39 39 34 25 24 22 23 15 11 9 16 24 25 25 31 33 36 41 52 57 58 63 58 57 56 56 54 52 50 48 46 44 46 50
32 44 56 55 46 47 39 36 24 26 35 39 26 22 25 31 28 20 14 9 23 31 30 35 35 32 43 55 62 58 63 60 57 54 51 49 47 47 47 45 46 48 48 48
38 50 54 47 43 38 38 30 28 25 30 24 26 20 30 32 27 21 22 24 29 35 36 39 41 46 58 46 54 66 62 54 51 47 45 43 43 44 45 46 46 44 43 46
44 51 37 30 30 33 35 31 31 29 32 24 27 26 33 39 32 21 16 24 34 38 37 47 54 62 50 51 52 59 57 47 44 45 42 42 42 43 44 43 46 45 43 45
43 39 24 28 29 28 29 31 33 26 23 12 17 24 35 37 20 25 26 32 39 41 45 57 66 51 53 49 55 52 52 40 45 43 41 40 42 44 44 43 44 44 44 43
39 29 24 30 36 38 34 34 28 17 17 16 21 24 35 38 22 32 31 37 43 45 60 72 63 45 49 51 42 37 43 48 42 39 39 38 42 43 44 45 45 41 41 42
34 23 30 38 39 32 27 31 17 9 11 11 27 32 42 35 37 40 39 43 50 54 62 58 76 54 48 41 38 33 40 45 40 39 38 40 42 43 43 43 41 40 40 40
Wind_Direction_850mb
245 255 241 261 269 273 195 207 190 258 231 278 285 292 304 319 326 326 330 331 330 328 326 331 335 327 334 333 331 330 323 316 310 299 283 283 233 208 206 192 187 198 208 208
288 282 240 267 266 252 208 212 247 266 283 240 300 319 312 320 326 324 330 328 331 330 330 336 333 328 333 333 333 329 328 322 316 298 287 221 193 205 190 184 187 194 191 200
260 322 324 314 224 221 255 248 218 271 276 296 305 308 311 314 322 322 326 329 333 333 337 337 330 332 333 334 334 334 333 333 321 310 323 204 189 182 178 180 181 182 185 189
252 15 263 244 267 244 235 265 247 270 273 276 290 311 318 326 316 315 326 332 334 336 339 332 333 337 335 339 340 337 334 334 310 307 256 205 193 181 174 175 174 174 174 178
197 206 291 299 249 227 203 281 263 234 269 299 307 322 314 324 331 324 328 333 334 338 337 337 339 339 344 345 344 345 343 344 336 192 174 172 167 165 162 162 160 163 168 160
144 224 231 243 286 336 129 292 287 256 286 285 317 326 302 326 329 326 330 335 336 340 340 344 343 347 354 351 354 357 358 356 161 150 154 163 159 155 155 159 155 148 138 136
167 258 280 242 307 332 151 253 308 292 292 294 268 278 309 319 327 325 333 338 342 342 347 349 348 355 360 358 2 7 32 67 124 144 148 150 151 149 149 146 142 137 133 131
154 204 272 355 1 296 260 323 307 313 317 314 313 314 314 319 323 329 335 341 345 348 352 355 358 360 359 5 4 28 62 113 125 135 137 136 144 142 141 136 131 129 124 119
184 224 249 333 332 323 327 311 303 311 313 316 318 329 320 321 324 331 338 346 349 352 358 3 5 3 1 12 37 79 105 117 120 131 128 126 132 137 134 131 127 123 119 120
23 292 283 321 327 340 325 316 329 331 327 333 327 328 321 319 325 333 341 350 350 358 4 5 9 5 4 11 71 107 113 117 122 128 125 122 126 130 127 126 124 120 120 119
267 287 296 239 349 352 341 345 338 336 348 345 340 334 322 318 326 336 344 352 355 5 7 5 12 6 9 21 93 114 121 125 126 129 129 129 123 122 120 118 120 122 125 123
234 234 218 295 314 316 321 320 332 336 337 342 340 332 323 317 328 339 348 355 359 9 12 7 15 12 21 39 104 116 117 119 122 124 121 118 113 110 113 119 123 120 118 117
243 265 287 295 299 296 297 299 322 332 345 353 353 343 329 322 329 343 352 0 3 9 16 13 20 24 31 55 102 117 120 124 124 121 118 114 115 114 114 113 109 107 107 106
271 287 293 295 283 265 302 302 320 324 334 350 352 349 338 322 325 343 354 6 8 14 24 22 24 34 46 84 118 127 125 121 116 114 115 116 116 117 116 114 111 108 104 104
277 284 288 313 288 283 285 292 298 314 326 335 352 340 337 320 315 338 355 9 15 22 31 34 37 42 56 105 121 127 122 120 121 122 122 122 122 121 119 117 116 115 117 113
280 279 285 294 283 282 282 292 307 317 323 329 336 334 332 310 303 334 357 15 25 34 38 38 50 59 91 122 130 130 129 130 130 128 127 127 126 125 123 120 117 118 117 113
277 277 274 262 255 278 297 306 313 315 321 326 332 328 335 299 283 327 353 31 49 54 56 56 71 94 113 124 132 129 127 128 132 133 133 132 129 125 122 120 119 115 109 109
233 245 274 297 306 310 308 308 314 317 318 320 332 319 327 290 273 312 349 55 90 83 77 74 87 115 128 128 132 132 134 139 137 136 135 132 127 122 120 117 114 112 111 111
306 327 325 325 318 310 308 304 304 306 309 315 323 306 307 269 256 274 334 110 125 116 108 102 105 120 136 142 141 144 145 140 138 135 133 130 125 121 121 119 115 111 110 111
336 332 331 329 324 311 306 305 307 307 312 318 321 298 273 248 238 235 210 120 144 144 138 133 133 131 135 142 146 148 141 142 141 138 137 133 130 128 123 119 116 116 116 113
335 335 330 329 327 328 324 316 310 315 325 321 311 276 252 239 220 213 195 149 166 158 153 153 152 150 150 155 153 149 144 147 146 142 140 136 133 127 123 123 121 119 118 116
329 327 326 328 326 323 326 319 306 311 317 316 303 251 224 214 202 189 168 179 168 162 160 161 154 154 151 146 148 150 147 149 146 143 141 136 131 131 128 125 125 123 121 117
318 323 328 325 324 323 327 326 324 306 306 304 298 248 215 209 205 202 186 171 173 165 164 160 146 151 137 147 150 149 147 145 145 143 139 135 131 130 129 128 123 121 120 117
309 321 325 344 332 324 324 318 310 310 301 285 253 247 215 196 184 180 170 169 169 167 159 157 150 139 146 149 152 151 152 150 145 143 136 131 132 131 128 126 124 122 123 119
306 317 319 329 330 341 325 324 317 320 319 280 241 231 220 190 193 182 168 166 166 162 155 151 143 148 151 154 154 154 155 153 148 140 134 133 134 133 131 127 124 126 124 123
312 305 303 304 303 313 315 325 322 322 337 230 224 225 193 175 177 160 164 163 158 159 155 149 141 152 150 148 147 141 150 147 145 145 140 136 138 135 134 130 127 127 126 125
320 300 299 315 323 314 302 319 309 309 324 250 215 200 178 169 166 159 160 159 156 157 153 161 154 143 137 150 159 159 153 156 152 148 144 140 139 136 135 133 132 131 126 123